Location: Villingen
(48.0639°N, 8.4609°E)
Time: 23:51:00
(UTC+01:00)

ISS - Pass Details

Date: 09 January 2018
Orbit: 402 x 407 km, 51.6° (Epoch: 20 January)

Event Time Altitude Azimuth Distance (km) Brightness Sun altitude
Exits shadow 05:48:59 33° 54° (NE) 713 -2.3 -23.5°
Drops below altitude 10° 05:51:09 10° 81° (E) 1,468 0.0 -23.1°
Sets 05:53:18 0° 88° (E) 2,329 1.4 -22.8°
